When you browse on this site, cookies collect data to enhance your experience and personalize the content and advertising you see.
Visit our Privacy Policy to learn more. By continuing to use the site, you agree to this use of cookies and data.
  • In Hungary
  • List of Countries
  • For 7 days
  • Water Temperature
  • Weather Map
  • News
  • Weather Widgets
  • user-avatar
    Login

    Hourly Weather Maslovo

    Today, 18 January, Saturday

    Time Temperature Precipitation Wind Pressure Humidity
    00:00 -16°C° 0 mm 2 mps 751 mmHg 85%
    01:00 -16°C° 0 mm 2 mps 750 mmHg 85%
    02:00 -15°C° 0 mm 2 mps 750 mmHg 84%
    03:00 -16°C° 0 mm 3 mps 750 mmHg 82%
    04:00 -15°C° 0 mm 3 mps 750 mmHg 81%
    05:00 -15°C° 0 mm 3 mps 749 mmHg 79%
    06:00 -15°C° 0 mm 3 mps 748 mmHg 78%
    07:00 -14°C° 0 mm 3 mps 747 mmHg 76%
    08:00 -14°C° 0 mm 3 mps 746 mmHg 79%
    09:00 -13°C° 0 mm 3 mps 746 mmHg 82%
    10:00 -13°C° 0 mm 3 mps 746 mmHg 84%
    11:00 -10°C° 0 mm 2 mps 745 mmHg 85%
    12:00 -9°C° 0 mm 2 mps 745 mmHg 86%
    13:00 -7°C° 0 mm 1 mps 745 mmHg 87%
    14:00 -8°C° 0 mm 1 mps 746 mmHg 87%
    15:00 -9°C° 0 mm 1 mps 746 mmHg 88%
    16:00 -13°C° 0 mm 2 mps 747 mmHg 89%
    17:00 -13°C° 0 mm 2 mps 748 mmHg 89%
    18:00 -14°C° 0 mm 2 mps 749 mmHg 88%
    19:00 -15°C° 0 mm 2 mps 750 mmHg 87%
    20:00 -15°C° 0 mm 2 mps 750 mmHg 87%
    21:00 -16°C° 0 mm 2 mps 751 mmHg 86%
    22:00 -16°C° 0 mm 2 mps 752 mmHg 86%
    23:00 -16°C° 0 mm 2 mps 752 mmHg 84%

    Tomorrow, 19 January, Sunday

    Time Temperature Precipitation Wind Pressure Humidity
    00:00 -16°C° 0 mm 2 mps 752 mmHg 82%
    01:00 -17°C° 0 mm 2 mps 752 mmHg 80%
    02:00 -17°C° 0 mm 2 mps 752 mmHg 79%
    03:00 -17°C° 0 mm 2 mps 753 mmHg 78%
    04:00 -15°C° 0 mm 1 mps 753 mmHg 77%
    05:00 -16°C° 0 mm 1 mps 754 mmHg 78%
    06:00 -16°C° 0 mm 1 mps 754 mmHg 78%
    07:00 -17°C° 0 mm 0 mps 754 mmHg 79%
    08:00 -17°C° 0 mm 0 mps 754 mmHg 80%
    09:00 -16°C° 0 mm 0 mps 755 mmHg 81%
    10:00 -16°C° 0 mm 0 mps 755 mmHg 82%
    11:00 -15°C° 0 mm 0 mps 755 mmHg 83%
    12:00 -14°C° 0 mm 0 mps 755 mmHg 84%
    13:00 -13°C° 0 mm 0 mps 755 mmHg 86%
    14:00 -14°C° 0 mm 0 mps 755 mmHg 86%
    15:00 -16°C° 0 mm 1 mps 755 mmHg 87%
    16:00 -17°C° 0 mm 1 mps 755 mmHg 88%
    17:00 -17°C° 0 mm 1 mps 755 mmHg 89%
    18:00 -18°C° 0 mm 1 mps 755 mmHg 90%
    19:00 -19°C° 0 mm 1 mps 754 mmHg 91%
    20:00 -19°C° 0 mm 1 mps 754 mmHg 91%
    21:00 -19°C° 0 mm 1 mps 755 mmHg 92%
    22:00 -19°C° 0 mm 1 mps 755 mmHg 93%
    23:00 -19°C° 0 mm 1 mps 754 mmHg 93%

    Day after tomorrow, 20 January, Monday

    Time Temperature Precipitation Wind Pressure Humidity
    00:00 -19°C° 0 mm 1 mps 754 mmHg 94%
    01:00 -19°C° 0 mm 1 mps 754 mmHg 95%
    02:00 -19°C° 0 mm 1 mps 754 mmHg 96%
    03:00 -20°C° 0 mm 0 mps 753 mmHg 97%
    04:00 -20°C° 0 mm 0 mps 753 mmHg 98%
    05:00 -20°C° 0 mm 0 mps 753 mmHg 98%
    06:00 -20°C° 0 mm 0 mps 753 mmHg 98%
    07:00 -20°C° 0 mm 0 mps 752 mmHg 99%
    08:00 -20°C° 0 mm 0 mps 752 mmHg 99%
    09:00 -20°C° 0 mm 0 mps 752 mmHg 99%
    10:00 -20°C° 0 mm 0 mps 752 mmHg 99%
    11:00 -19°C° 0 mm 0 mps 752 mmHg 97%
    12:00 -18°C° 0 mm 0 mps 752 mmHg 95%
    13:00 -17°C° 0 mm 0 mps 751 mmHg 93%
    14:00 -18°C° 0 mm 0 mps 751 mmHg 95%
    15:00 -19°C° 0 mm 0 mps 751 mmHg 96%
    16:00 -20°C° 0 mm 0 mps 751 mmHg 98%
    17:00 -20°C° 0 mm 1 mps 751 mmHg 98%
    18:00 -20°C° 0 mm 1 mps 751 mmHg 98%
    19:00 -20°C° 0 mm 1 mps 751 mmHg 98%
    20:00 -20°C° 0 mm 1 mps 750 mmHg 97%
    21:00 -20°C° 0 mm 1 mps 750 mmHg 97%
    22:00 -23°C° 0 mm 2 mps 750 mmHg 97%
    23:00 -21°C° 0 mm 2 mps 750 mmHg 97%

    21 January, Tuesday

    Time Temperature Precipitation Wind Pressure Humidity
    00:00 -21°C° 0 mm 2 mps 749 mmHg 97%
    01:00 -21°C° 0 mm 2 mps 749 mmHg 97%
    02:00 -21°C° 0 mm 2 mps 749 mmHg 96%
    03:00 -20°C° 0 mm 2 mps 748 mmHg 96%
    04:00 -20°C° 0 mm 2 mps 748 mmHg 96%
    05:00 -20°C° 0 mm 2 mps 747 mmHg 95%
    06:00 -22°C° 0 mm 3 mps 747 mmHg 95%
    07:00 -21°C° 0 mm 3 mps 747 mmHg 95%
    08:00 -21°C° 0 mm 3 mps 746 mmHg 94%
    09:00 -19°C° 0 mm 3 mps 746 mmHg 94%
    10:00 -19°C° 0 mm 3 mps 745 mmHg 93%
    11:00 -17°C° 0 mm 3 mps 744 mmHg 93%
    12:00 -17°C° 0 mm 4 mps 744 mmHg 92%
    13:00 -16°C° 0 mm 4 mps 743 mmHg 91%
    14:00 -16°C° 0 mm 4 mps 742 mmHg 91%
    15:00 -16°C° 0 mm 4 mps 741 mmHg 92%
    16:00 -16°C° 0 mm 4 mps 740 mmHg 92%
    17:00 -15°C° 0 mm 4 mps 739 mmHg 92%
    18:00 -15°C° 0 mm 5 mps 738 mmHg 91%
    19:00 -15°C° 0 mm 5 mps 737 mmHg 91%
    20:00 -14°C° 0 mm 5 mps 736 mmHg 90%
    21:00 -15°C° 0 mm 6 mps 734 mmHg 89%
    22:00 -14°C° 0 mm 6 mps 733 mmHg 88%
    23:00 -14°C° 0 mm 6 mps 732 mmHg 87%

    22 January, Wednesday

    Time Temperature Precipitation Wind Pressure Humidity
    00:00 -12°C° 0 mm 6 mps 731 mmHg 87%
    01:00 -11°C° 0 mm 6 mps 730 mmHg 86%
    02:00 -11°C° 0.1 mm 6 mps 729 mmHg 87%
    03:00 -10°C° 0.1 mm 6 mps 729 mmHg 87%
    04:00 -10°C° 0.1 mm 6 mps 728 mmHg 88%
    05:00 -10°C° 0 mm 5 mps 727 mmHg 88%
    06:00 -10°C° 0 mm 5 mps 727 mmHg 87%
    07:00 -10°C° 0 mm 5 mps 726 mmHg 87%
    08:00 -9°C° 0 mm 4 mps 726 mmHg 88%
    09:00 -9°C° 0 mm 4 mps 725 mmHg 89%
    10:00 -9°C° 0 mm 4 mps 725 mmHg 89%
    11:00 -9°C° 0 mm 4 mps 725 mmHg 89%
    12:00 -7°C° 0 mm 3 mps 725 mmHg 90%
    13:00 -7°C° 0 mm 3 mps 724 mmHg 90%
    14:00 -8°C° 0 mm 3 mps 724 mmHg 91%
    15:00 -7°C° 0 mm 2 mps 724 mmHg 93%
    16:00 -8°C° 0 mm 2 mps 724 mmHg 94%
    17:00 -9°C° 0 mm 2 mps 724 mmHg 94%
    18:00 -9°C° 0 mm 2 mps 724 mmHg 95%
    19:00 -9°C° 0 mm 2 mps 724 mmHg 95%
    20:00 -9°C° 0 mm 1 mps 724 mmHg 95%
    21:00 -10°C° 0 mm 1 mps 723 mmHg 95%
    22:00 -10°C° 0 mm 0 mps 723 mmHg 95%
    23:00 -11°C° 0 mm 0 mps 723 mmHg 95%

    23 January, Thursday

    Time Temperature Precipitation Wind Pressure Humidity
    00:00 -11°C° 0 mm 0 mps 723 mmHg 95%
    01:00 -11°C° 0 mm 0 mps 723 mmHg 95%
    02:00 -11°C° 0 mm 1 mps 723 mmHg 95%
    03:00 -11°C° 0 mm 1 mps 723 mmHg 95%
    04:00 -11°C° 0 mm 1 mps 723 mmHg 95%
    05:00 -11°C° 0 mm 1 mps 723 mmHg 95%
    06:00 -11°C° 0 mm 1 mps 723 mmHg 95%
    07:00 -11°C° 0 mm 1 mps 723 mmHg 95%
    08:00 -11°C° 0 mm 1 mps 723 mmHg 94%
    09:00 -11°C° 0 mm 1 mps 724 mmHg 93%
    10:00 -11°C° 0 mm 1 mps 724 mmHg 92%
    11:00 -10°C° 0 mm 1 mps 725 mmHg 91%
    12:00 -9°C° 0 mm 1 mps 725 mmHg 90%
    13:00 -9°C° 0 mm 1 mps 726 mmHg 88%
    14:00 -9°C° 0 mm 1 mps 726 mmHg 89%
    15:00 -10°C° 0 mm 1 mps 727 mmHg 89%
    16:00 -10°C° 0 mm 1 mps 728 mmHg 90%
    17:00 -13°C° 0 mm 2 mps 728 mmHg 89%
    18:00 -13°C° 0 mm 2 mps 729 mmHg 88%
    19:00 -13°C° 0 mm 2 mps 730 mmHg 87%
    20:00 -14°C° 0 mm 2 mps 730 mmHg 87%
    21:00 -14°C° 0 mm 2 mps 731 mmHg 86%
    22:00 -15°C° 0 mm 2 mps 731 mmHg 86%
    23:00 -15°C° 0 mm 2 mps 731 mmHg 86%
    Show more